VOI3281 MMVR-MMMX

Flight info

Callsign VOI3281
Flight time 1h 9m
Altitude 32000
Route AXORO2 AXORO UT61 AVALI UT169 UMAVO UT101 ENAGA ENAGA3B
Aircraft A320/M-SDE3FGHIRWY/LB1

Departure

Time 2026-04-24 00:57
Airport General Heriberto Jara International Airport (MMVR)

Arrival

Time 2026-04-24 02:06
Airport Mexico City Benito Juárez International Airport (MMMX)
Time Latitude Longitude Altitude Speed Heading
2026-04-24 00:28 19.14311 -96.18424 120 ft 0 kts 101°
2026-04-24 00:45 19.14312 -96.18431 115 ft 4 kts 101°
2026-04-24 00:45 19.14317 -96.18459 116 ft 3 kts 101°
2026-04-24 00:45 19.14326 -96.18483 114 ft 4 kts 150°
2026-04-24 00:45 19.14350 -96.18486 116 ft 4 kts 191°
2026-04-24 00:46 19.14355 -96.18485 115 ft 1 kts 191°
2026-04-24 00:50 19.14344 -96.18487 116 ft 4 kts 191°
2026-04-24 00:51 19.14298 -96.18496 115 ft 9 kts 192°
2026-04-24 00:51 19.14224 -96.18526 119 ft 14 kts 225°
2026-04-24 00:51 19.14200 -96.18625 113 ft 15 kts 236°
2026-04-24 00:51 19.14116 -96.18708 113 ft 17 kts 221°
2026-04-24 00:52 19.14071 -96.18749 115 ft 0 kts 221°
2026-04-24 00:52 19.14069 -96.18751 116 ft 2 kts 221°
2026-04-24 00:53 19.14043 -96.18774 114 ft 8 kts 221°
2026-04-24 00:53 19.13988 -96.18825 115 ft 13 kts 221°
2026-04-24 00:53 19.13890 -96.18877 112 ft 18 kts 192°
2026-04-24 00:53 19.13759 -96.18903 115 ft 20 kts 189°
2026-04-24 00:54 19.13625 -96.18930 118 ft 20 kts 191°
2026-04-24 00:54 19.13476 -96.18963 116 ft 23 kts 192°
2026-04-24 00:54 19.13327 -96.18997 118 ft 23 kts 191°
2026-04-24 00:54 19.13165 -96.19029 117 ft 25 kts 190°
2026-04-24 00:55 19.13010 -96.19062 116 ft 21 kts 191°
2026-04-24 00:55 19.12900 -96.19047 113 ft 16 kts 148°
2026-04-24 00:55 19.12876 -96.19096 114 ft 13 kts 339°
2026-04-24 00:55 19.12956 -96.19073 115 ft 7 kts 11°
2026-04-24 00:56 19.12964 -96.19072 115 ft 2 kts 11°
2026-04-24 00:56 19.13143 -96.19032 116 ft 62 kts 13°
2026-04-24 00:56 19.13793 -96.18898 115 ft 125 kts 11°
2026-04-24 00:56 19.14783 -96.18683 277 ft 156 kts 15°
2026-04-24 00:57 19.15853 -96.18458 914 ft 158 kts 12°
2026-04-24 00:57 19.16953 -96.18263 1571 ft 158 kts 13°
2026-04-24 00:57 19.19287 -96.17852 2229 ft 190 kts 10°
2026-04-24 00:58 19.20649 -96.17610 2425 ft 212 kts 10°
2026-04-24 00:58 19.22187 -96.17332 2660 ft 237 kts 10°
2026-04-24 00:58 19.23901 -96.17021 3019 ft 262 kts 10°
2026-04-24 00:58 19.25762 -96.16682 3592 ft 277 kts 10°
2026-04-24 00:59 19.27694 -96.16480 4420 ft 283 kts 353°
2026-04-24 00:59 19.29519 -96.17204 5248 ft 283 kts 321°
2026-04-24 00:59 19.30711 -96.18822 6138 ft 280 kts 289°
2026-04-24 00:59 19.30959 -96.20843 6960 ft 279 kts 263°
2026-04-24 01:00 19.30786 -96.22897 7761 ft 283 kts 271°
2026-04-24 01:00 19.31157 -96.24950 8514 ft 287 kts 289°
2026-04-24 01:00 19.32051 -96.26858 9270 ft 292 kts 303°
2026-04-24 01:00 19.33360 -96.28516 9981 ft 297 kts 317°
2026-04-24 01:01 19.35069 -96.29878 10263 ft 318 kts 331°
2026-04-24 01:01 19.37116 -96.30968 10484 ft 338 kts 334°
2026-04-24 01:01 19.39251 -96.32081 11022 ft 345 kts 334°
2026-04-24 01:01 19.41414 -96.33214 11676 ft 348 kts 334°
2026-04-24 01:02 19.43586 -96.34359 12363 ft 350 kts 334°
2026-04-24 01:02 19.45775 -96.35515 13032 ft 353 kts 334°
2026-04-24 01:02 19.47979 -96.36682 13696 ft 355 kts 334°
2026-04-24 01:02 19.50200 -96.37857 14283 ft 358 kts 333°
2026-04-24 01:03 19.52436 -96.39042 14882 ft 360 kts 333°
2026-04-24 01:03 19.54687 -96.40233 15489 ft 363 kts 333°
2026-04-24 01:03 19.56950 -96.41431 16107 ft 365 kts 332°
2026-04-24 01:03 19.59226 -96.42636 16728 ft 367 kts 332°
2026-04-24 01:04 19.61517 -96.43847 17346 ft 369 kts 332°
2026-04-24 01:04 19.63822 -96.45065 17951 ft 371 kts 331°
2026-04-24 01:04 19.66136 -96.46291 18499 ft 373 kts 331°
2026-04-24 01:04 19.68466 -96.47529 19014 ft 375 kts 331°
2026-04-24 01:05 19.70808 -96.48776 19531 ft 378 kts 331°
2026-04-24 01:05 19.73166 -96.50030 20043 ft 380 kts 331°
2026-04-24 01:05 19.75540 -96.51290 20557 ft 382 kts 331°
2026-04-24 01:05 19.77924 -96.52557 21051 ft 385 kts 332°
2026-04-24 01:06 19.80325 -96.53832 21531 ft 387 kts 332°
2026-04-24 01:06 19.82739 -96.55115 22028 ft 389 kts 332°
2026-04-24 01:06 19.85167 -96.56407 22493 ft 392 kts 332°
2026-04-24 01:06 19.87615 -96.57711 22928 ft 395 kts 332°
2026-04-24 01:07 19.90076 -96.59023 23391 ft 397 kts 332°
2026-04-24 01:07 19.92523 -96.60327 23777 ft 399 kts 332°
2026-04-24 01:07 19.95014 -96.61653 24166 ft 401 kts 332°
2026-04-24 01:07 19.97518 -96.62985 24548 ft 403 kts 332°
2026-04-24 01:08 20.00028 -96.64323 24927 ft 405 kts 332°
2026-04-24 01:08 20.02553 -96.65674 25316 ft 407 kts 332°
2026-04-24 01:08 20.05087 -96.67031 25692 ft 409 kts 332°
2026-04-24 01:08 20.07638 -96.68394 26067 ft 411 kts 332°
2026-04-24 01:09 20.10267 -96.69797 26433 ft 413 kts 332°
2026-04-24 01:09 20.12770 -96.71154 26791 ft 415 kts 329°
2026-04-24 01:09 20.15085 -96.72982 27132 ft 416 kts 315°
2026-04-24 01:09 20.16914 -96.75368 27484 ft 419 kts 302°
2026-04-24 01:10 20.18152 -96.78183 27836 ft 424 kts 289°
2026-04-24 01:10 20.18712 -96.81275 28193 ft 430 kts 275°
2026-04-24 01:10 20.18636 -96.84475 28548 ft 435 kts 269°
2026-04-24 01:10 20.18457 -96.87696 28917 ft 437 kts 269°
2026-04-24 01:11 20.18273 -96.90933 29281 ft 440 kts 269°
2026-04-24 01:11 20.18088 -96.94194 29640 ft 443 kts 269°
2026-04-24 01:11 20.17901 -96.97476 29979 ft 445 kts 269°
2026-04-24 01:11 20.17712 -97.00773 30292 ft 447 kts 269°
2026-04-24 01:12 20.17522 -97.04093 30653 ft 448 kts 269°
2026-04-24 01:12 20.17333 -97.07393 31151 ft 446 kts 269°
2026-04-24 01:12 20.17145 -97.10639 31623 ft 444 kts 269°
2026-04-24 01:12 20.16954 -97.13915 31786 ft 443 kts 270°
2026-04-24 01:13 20.16765 -97.17142 31824 ft 433 kts 270°
2026-04-24 01:13 20.16395 -97.23475 31826 ft 426 kts 270°
2026-04-24 01:14 20.16035 -97.29782 31827 ft 426 kts 270°
2026-04-24 01:14 20.15671 -97.36073 31834 ft 426 kts 269°
2026-04-24 01:15 20.15297 -97.42362 31838 ft 426 kts 270°
2026-04-24 01:15 20.14925 -97.48668 31841 ft 427 kts 269°
2026-04-24 01:16 20.14547 -97.54974 31845 ft 427 kts 269°
2026-04-24 01:16 20.14171 -97.61278 31855 ft 427 kts 269°
2026-04-24 01:17 20.13793 -97.67587 31865 ft 427 kts 269°
2026-04-24 01:17 20.13411 -97.73890 31875 ft 427 kts 269°
2026-04-24 01:18 20.12872 -97.80184 31718 ft 430 kts 261°
2026-04-24 01:18 20.12374 -97.82222 31571 ft 432 kts 256°
2026-04-24 01:18 20.11499 -97.85277 31331 ft 430 kts 256°
2026-04-24 01:18 20.10630 -97.88314 31103 ft 429 kts 256°
2026-04-24 01:19 20.09767 -97.91344 30874 ft 427 kts 256°
2026-04-24 01:19 20.08911 -97.94362 30646 ft 425 kts 256°
2026-04-24 01:19 20.08059 -97.97370 30417 ft 424 kts 256°
2026-04-24 01:19 20.06937 -98.01334 30123 ft 422 kts 256°
2026-04-24 01:20 20.06366 -98.03348 29988 ft 420 kts 256°
2026-04-24 01:20 20.04676 -98.09293 29958 ft 420 kts 256°
2026-04-24 01:21 20.03023 -98.15066 29968 ft 396 kts 256°
2026-04-24 01:21 20.02230 -98.17820 29972 ft 382 kts 256°
2026-04-24 01:21 20.01749 -98.20520 29964 ft 362 kts 274°
2026-04-24 01:21 20.02169 -98.23078 29975 ft 343 kts 292°
2026-04-24 01:22 20.03235 -98.25288 29984 ft 331 kts 306°
2026-04-24 01:22 20.04755 -98.27104 29975 ft 328 kts 319°
2026-04-24 01:22 20.06646 -98.28449 29969 ft 329 kts 333°
2026-04-24 01:22 20.08815 -98.29220 29967 ft 332 kts 348°
2026-04-24 01:23 20.11135 -98.29326 29967 ft 337 kts
2026-04-24 01:23 20.13422 -98.28728 29957 ft 343 kts 19°
2026-04-24 01:23 20.15501 -98.27445 29951 ft 350 kts 36°
2026-04-24 01:23 20.17187 -98.25552 29950 ft 357 kts 52°
2026-04-24 01:24 20.18313 -98.23169 29940 ft 364 kts 68°
2026-04-24 01:24 20.19638 -98.17931 29936 ft 368 kts 74°
2026-04-24 01:25 20.20663 -98.12581 29920 ft 369 kts 75°
2026-04-24 01:25 20.21067 -98.09882 29917 ft 371 kts 86°
2026-04-24 01:25 20.20807 -98.07140 29930 ft 375 kts 104°
2026-04-24 01:25 20.19788 -98.04580 29916 ft 378 kts 123°
2026-04-24 01:26 20.18082 -98.02472 29920 ft 378 kts 142°
2026-04-24 01:26 20.15852 -98.01020 29914 ft 375 kts 161°
2026-04-24 01:26 20.13344 -98.00368 29915 ft 370 kts 180°
2026-04-24 01:26 20.10808 -98.00545 29924 ft 364 kts 198°
2026-04-24 01:27 20.08509 -98.01485 29932 ft 356 kts 216°
2026-04-24 01:27 20.06579 -98.03070 29940 ft 349 kts 232°
2026-04-24 01:27 20.05179 -98.05132 29939 ft 342 kts 248°
2026-04-24 01:27 20.04386 -98.07485 29946 ft 336 kts 262°
2026-04-24 01:28 20.03894 -98.09921 29944 ft 337 kts 261°
2026-04-24 01:28 20.02866 -98.14791 29965 ft 338 kts 261°
2026-04-24 01:29 20.01936 -98.19673 29959 ft 334 kts 272°
2026-04-24 01:29 20.02240 -98.22083 29977 ft 328 kts 291°
2026-04-24 01:29 20.03294 -98.24212 29963 ft 326 kts 310°
2026-04-24 01:29 20.04967 -98.25818 29979 ft 326 kts 328°
2026-04-24 01:30 20.07074 -98.26720 29964 ft 330 kts 347°
2026-04-24 01:30 20.09351 -98.26801 29966 ft 336 kts
2026-04-24 01:30 20.11584 -98.26010 29955 ft 344 kts 26°
2026-04-24 01:30 20.13445 -98.24377 29950 ft 354 kts 48°
2026-04-24 01:31 20.14638 -98.22065 29948 ft 363 kts 69°
2026-04-24 01:31 20.15903 -98.16808 29947 ft 375 kts 73°
2026-04-24 01:32 20.16613 -98.13564 29936 ft 392 kts 76°
2026-04-24 01:32 20.16953 -98.10620 29922 ft 409 kts 88°
2026-04-24 01:32 20.16539 -98.07570 29928 ft 426 kts 107°
2026-04-24 01:32 20.15192 -98.04713 29913 ft 441 kts 127°
2026-04-24 01:33 20.12958 -98.02443 29908 ft 450 kts 148°
2026-04-24 01:33 20.10098 -98.01119 29917 ft 451 kts 170°
2026-04-24 01:33 20.07041 -98.00905 29919 ft 445 kts 190°
2026-04-24 01:33 20.04049 -98.01675 29927 ft 441 kts 205°
2026-04-24 01:34 20.01421 -98.03275 29941 ft 433 kts 223°
2026-04-24 01:34 19.99412 -98.05601 29949 ft 425 kts 241°
2026-04-24 01:34 19.98247 -98.08445 29957 ft 418 kts 259°
2026-04-24 01:34 19.97898 -98.11521 29955 ft 413 kts 274°
2026-04-24 01:35 19.98056 -98.13284 29964 ft 411 kts 281°
2026-04-24 01:35 19.98694 -98.15721 29995 ft 397 kts 296°
2026-04-24 01:35 20.00137 -98.18159 29874 ft 383 kts 309°
2026-04-24 01:36 20.01785 -98.20336 29728 ft 373 kts 309°
2026-04-24 01:36 20.03446 -98.22421 29235 ft 371 kts 317°
2026-04-24 01:36 20.05576 -98.23990 28761 ft 371 kts 331°
2026-04-24 01:36 20.07902 -98.25113 28627 ft 363 kts 339°
2026-04-24 01:37 20.10360 -98.25785 27807 ft 373 kts 352°
2026-04-24 01:37 20.13020 -98.25603 26660 ft 397 kts 12°
2026-04-24 01:37 20.15582 -98.24315 25471 ft 421 kts 34°
2026-04-24 01:37 20.17638 -98.21994 24216 ft 444 kts 56°
2026-04-24 01:38 20.18841 -98.18912 22996 ft 460 kts 72°
2026-04-24 01:38 20.19656 -98.15575 21622 ft 470 kts 75°
2026-04-24 01:38 20.20391 -98.12181 20677 ft 471 kts 77°
2026-04-24 01:38 20.20667 -98.08761 20251 ft 459 kts 95°
2026-04-24 01:39 20.19822 -98.05564 20047 ft 441 kts 117°
2026-04-24 01:39 20.18061 -98.03035 19883 ft 424 kts 139°
2026-04-24 01:39 20.15669 -98.01371 19903 ft 401 kts 159°
2026-04-24 01:39 20.13055 -98.00665 19913 ft 378 kts 178°
2026-04-24 01:40 20.10517 -98.00866 19909 ft 356 kts 197°
2026-04-24 01:40 20.08291 -98.01812 19915 ft 336 kts 214°
2026-04-24 01:40 20.06511 -98.03302 19924 ft 317 kts 230°
2026-04-24 01:40 20.05235 -98.05139 19931 ft 301 kts 244°
2026-04-24 01:41 20.04443 -98.07162 19940 ft 297 kts 253°
2026-04-24 01:41 20.03523 -98.09240 19947 ft 324 kts 240°
2026-04-24 01:41 20.02260 -98.11326 19946 ft 347 kts 238°
2026-04-24 01:41 20.00881 -98.13495 19945 ft 359 kts 237°
2026-04-24 01:42 19.99475 -98.15667 19769 ft 362 kts 237°
2026-04-24 01:42 19.98050 -98.17862 19543 ft 361 kts 237°
2026-04-24 01:42 19.96630 -98.20059 19317 ft 359 kts 237°
2026-04-24 01:42 19.95226 -98.22251 19091 ft 358 kts 237°
2026-04-24 01:43 19.93836 -98.24444 18861 ft 356 kts 238°
2026-04-24 01:43 19.92459 -98.26628 18635 ft 355 kts 238°
2026-04-24 01:43 19.91089 -98.28805 18405 ft 354 kts 238°
2026-04-24 01:43 19.89725 -98.30973 18198 ft 352 kts 238°
2026-04-24 01:44 19.88368 -98.33131 17933 ft 351 kts 238°
2026-04-24 01:44 19.87013 -98.35282 17671 ft 350 kts 238°
2026-04-24 01:44 19.85660 -98.37422 17425 ft 349 kts 238°
2026-04-24 01:44 19.84309 -98.39556 17169 ft 347 kts 238°
2026-04-24 01:45 19.82962 -98.41685 16914 ft 346 kts 238°
2026-04-24 01:45 19.81625 -98.43801 16671 ft 345 kts 238°
2026-04-24 01:45 19.80288 -98.45915 16422 ft 344 kts 238°
2026-04-24 01:45 19.78955 -98.48018 16173 ft 343 kts 238°
2026-04-24 01:46 19.77624 -98.50120 15926 ft 342 kts 238°
2026-04-24 01:46 19.76300 -98.52211 15686 ft 342 kts 238°
2026-04-24 01:46 19.74982 -98.54295 15421 ft 337 kts 238°
2026-04-24 01:46 19.73676 -98.56357 14999 ft 335 kts 238°
2026-04-24 01:47 19.72390 -98.58381 14556 ft 335 kts 238°
2026-04-24 01:47 19.71088 -98.60427 14108 ft 334 kts 238°
2026-04-24 01:47 19.69790 -98.62468 13638 ft 334 kts 238°
2026-04-24 01:47 19.68493 -98.64511 13172 ft 333 kts 238°
2026-04-24 01:48 19.67200 -98.66552 12744 ft 333 kts 238°
2026-04-24 01:48 19.65911 -98.68583 12438 ft 328 kts 238°
2026-04-24 01:48 19.64655 -98.70552 12359 ft 315 kts 238°
2026-04-24 01:48 19.63462 -98.72421 12248 ft 295 kts 238°
2026-04-24 01:49 19.62347 -98.74165 12135 ft 276 kts 238°
2026-04-24 01:49 19.61304 -98.75798 12021 ft 259 kts 238°
2026-04-24 01:49 19.60321 -98.77340 11922 ft 248 kts 239°
2026-04-24 01:49 19.59360 -98.78853 11827 ft 247 kts 238°
2026-04-24 01:50 19.58418 -98.80386 11631 ft 249 kts 240°
2026-04-24 01:50 19.57525 -98.81964 11368 ft 249 kts 241°
2026-04-24 01:50 19.56654 -98.83549 11117 ft 249 kts 242°
2026-04-24 01:50 19.55789 -98.85136 10871 ft 248 kts 242°
2026-04-24 01:51 19.54932 -98.86720 10630 ft 247 kts 241°
2026-04-24 01:51 19.54064 -98.88287 10396 ft 246 kts 240°
2026-04-24 01:51 19.53201 -98.89828 10158 ft 237 kts 240°
2026-04-24 01:51 19.52379 -98.91298 9934 ft 228 kts 240°
2026-04-24 01:52 19.51582 -98.92723 9738 ft 222 kts 240°
2026-04-24 01:52 19.50805 -98.94113 9630 ft 211 kts 240°
2026-04-24 01:52 19.50082 -98.95404 9401 ft 197 kts 240°
2026-04-24 01:52 19.49404 -98.96617 9278 ft 185 kts 239°
2026-04-24 01:53 19.48792 -98.97711 9182 ft 167 kts 239°
2026-04-24 01:53 19.48216 -98.98740 9082 ft 159 kts 239°
2026-04-24 01:53 19.47660 -98.99734 8935 ft 156 kts 238°
2026-04-24 01:53 19.47103 -99.00723 8737 ft 156 kts 237°
2026-04-24 01:54 19.46548 -99.01710 8422 ft 155 kts 239°
2026-04-24 01:54 19.46009 -99.02703 8073 ft 154 kts 240°
2026-04-24 01:54 19.45466 -99.03673 7801 ft 151 kts 242°
2026-04-24 01:54 19.44918 -99.04628 7572 ft 152 kts 239°
2026-04-24 01:55 19.44384 -99.05582 7354 ft 148 kts 240°
2026-04-24 01:55 19.43838 -99.06563 7462 ft 164 kts 240°
2026-04-24 01:55 19.43199 -99.07690 7898 ft 196 kts 239°
2026-04-24 01:55 19.42469 -99.08995 8802 ft 219 kts 239°
2026-04-24 01:56 19.41662 -99.10445 9187 ft 232 kts 239°
2026-04-24 01:56 19.40829 -99.11913 9578 ft 233 kts 242°
2026-04-24 01:56 19.39999 -99.13386 9918 ft 232 kts 241°
2026-04-24 01:56 19.39003 -99.14696 9999 ft 234 kts 220°
2026-04-24 01:57 19.37531 -99.15413 9995 ft 237 kts 192°
2026-04-24 01:57 19.35882 -99.15294 9981 ft 243 kts 163°
2026-04-24 01:57 19.34430 -99.14377 9977 ft 247 kts 135°
2026-04-24 01:57 19.33533 -99.12835 9971 ft 249 kts 106°
2026-04-24 01:58 19.33428 -99.11019 9986 ft 249 kts 76°
2026-04-24 01:58 19.34109 -99.09357 9997 ft 248 kts 56°
2026-04-24 01:58 19.35023 -99.07801 10007 ft 249 kts 56°
2026-04-24 01:58 19.35930 -99.06251 10009 ft 247 kts 56°
2026-04-24 01:59 19.36831 -99.04703 10009 ft 247 kts 57°
2026-04-24 01:59 19.37733 -99.03146 10013 ft 247 kts 57°
2026-04-24 01:59 19.38641 -99.01575 10024 ft 259 kts 58°
2026-04-24 01:59 19.39602 -98.99916 10005 ft 268 kts 58°
2026-04-24 02:00 19.40580 -98.98226 10007 ft 269 kts 58°
2026-04-24 02:00 19.41558 -98.96535 9995 ft 268 kts 58°
2026-04-24 02:00 19.42508 -98.94889 9965 ft 255 kts 58°
2026-04-24 02:00 19.43415 -98.93316 9957 ft 247 kts 58°
2026-04-24 02:01 19.44302 -98.91778 9922 ft 243 kts 58°
2026-04-24 02:01 19.45258 -98.90322 9691 ft 238 kts 46°
2026-04-24 02:01 19.46519 -98.89238 9549 ft 231 kts 30°
2026-04-24 02:01 19.47990 -98.88606 9362 ft 227 kts 11°
2026-04-24 02:02 19.49562 -98.88618 9183 ft 226 kts 346°
2026-04-24 02:02 19.50967 -98.89311 9047 ft 223 kts 320°
2026-04-24 02:02 19.51936 -98.90566 8951 ft 221 kts 288°
2026-04-24 02:02 19.51970 -98.92098 8922 ft 203 kts 244°
2026-04-24 02:03 19.50651 -98.94393 8942 ft 172 kts 237°
2026-04-24 02:03 19.50047 -98.95471 8964 ft 169 kts 237°
2026-04-24 02:03 19.49448 -98.96540 8984 ft 168 kts 238°
2026-04-24 02:04 19.48867 -98.97577 9025 ft 161 kts 238°
2026-04-24 02:04 19.48301 -98.98588 9024 ft 159 kts 238°
2026-04-24 02:04 19.47739 -98.99592 8925 ft 158 kts 238°
2026-04-24 02:04 19.47360 -99.00269 8811 ft 158 kts 238°
2026-04-24 02:05 19.46801 -99.01267 8524 ft 157 kts 239°
2026-04-24 02:05 19.46244 -99.02261 8200 ft 157 kts 239°
2026-04-24 02:05 19.45700 -99.03229 7864 ft 153 kts 239°
2026-04-24 02:05 19.45165 -99.04194 7608 ft 151 kts 239°
2026-04-24 02:06 19.44629 -99.05147 7404 ft 150 kts 239°
2026-04-24 02:06 19.44107 -99.06082 7303 ft 139 kts 239°
2026-04-24 02:06 19.43730 -99.06748 7303 ft 63 kts 239°
2026-04-24 02:06 19.43580 -99.07029 7303 ft 33 kts 242°
2026-04-24 02:07 19.43453 -99.07253 7302 ft 41 kts 238°
2026-04-24 02:07 19.43387 -99.07465 7303 ft 20 kts 286°
2026-04-24 02:07 19.43449 -99.07579 7303 ft 19 kts 299°
2026-04-24 02:07 19.43468 -99.07612 7303 ft 0 kts 301°
2026-04-24 02:08 19.43472 -99.07620 7303 ft 4 kts 301°
2026-04-24 02:08 19.43496 -99.07662 7303 ft 9 kts 301°
2026-04-24 02:08 19.43536 -99.07732 7303 ft 14 kts 300°
2026-04-24 02:09 19.43571 -99.07826 7303 ft 12 kts 268°
2026-04-24 02:09 19.43559 -99.07859 7303 ft 0 kts 239°
2026-04-24 02:09 19.43555 -99.07867 7303 ft 3 kts 239°
2026-04-24 02:09 19.43540 -99.07893 7303 ft 6 kts 239°
2026-04-24 02:10 19.43514 -99.07939 7303 ft 9 kts 239°
2026-04-24 02:10 19.43478 -99.08006 7303 ft 12 kts 240°
2026-04-24 02:10 19.43436 -99.08084 7303 ft 13 kts 246°
2026-04-24 02:10 19.43453 -99.08131 7303 ft 2 kts 325°
2026-04-24 02:11 19.43478 -99.08148 7303 ft 6 kts 329°
2026-04-24 02:11 19.43501 -99.08163 7303 ft 2 kts 329°
2026-04-24 02:11 19.43503 -99.08164 7303 ft 0 kts 329°